EWG17A EDDH-EDDS

Flight info

Callsign EWG17A
Flight time 0h 56m
Altitude 35000
Route IDEKO7G IDEKO N850 NIE DCT BERXO DCT SILWE DCT OSBIT P605 TOSTU T726 LBU
Aircraft A320/M-SDE3FGHIRWY/LB1

Departure

Time 2026-05-06 19:36
Airport Hamburg Helmut Schmidt Airport (EDDH)

Arrival

Time 2026-05-06 20:33
Airport Stuttgart Airport (EDDS)
Time Latitude Longitude Altitude Speed Heading
2026-05-06 18:59 53.63412 10.00336 50 ft 0 kts 86°
2026-05-06 19:24 53.63411 10.00314 51 ft 4 kts 89°
2026-05-06 19:24 53.63413 10.00269 48 ft 4 kts 102°
2026-05-06 19:25 53.63422 10.00229 51 ft 4 kts 136°
2026-05-06 19:25 53.63435 10.00216 49 ft 0 kts 175°
2026-05-06 19:28 53.63431 10.00214 48 ft 5 kts 192°
2026-05-06 19:28 53.63352 10.00163 51 ft 13 kts 180°
2026-05-06 19:28 53.63261 10.00174 51 ft 14 kts 176°
2026-05-06 19:28 53.63168 10.00185 48 ft 13 kts 175°
2026-05-06 19:29 53.63081 10.00189 51 ft 14 kts 192°
2026-05-06 19:29 53.62985 10.00100 50 ft 17 kts 214°
2026-05-06 19:29 53.62919 9.99990 51 ft 12 kts 234°
2026-05-06 19:29 53.62893 9.99910 52 ft 0 kts 243°
2026-05-06 19:30 53.62878 9.99861 52 ft 11 kts 243°
2026-05-06 19:30 53.62857 9.99757 53 ft 8 kts 290°
2026-05-06 19:31 53.62891 9.99719 53 ft 0 kts 332°
2026-05-06 19:35 53.62910 9.99702 50 ft 17 kts 332°
2026-05-06 19:36 53.63264 9.99400 53 ft 92 kts 333°
2026-05-06 19:36 53.64009 9.98753 50 ft 146 kts 333°
2026-05-06 19:36 53.64993 9.97859 376 ft 166 kts 335°
2026-05-06 19:36 53.66017 9.96982 1157 ft 164 kts 338°
2026-05-06 19:37 53.67062 9.96109 1680 ft 179 kts 339°
2026-05-06 19:37 53.68240 9.95128 2014 ft 201 kts 338°
2026-05-06 19:37 53.69547 9.94026 2451 ft 215 kts 337°
2026-05-06 19:37 53.70859 9.92736 3212 ft 223 kts 320°
2026-05-06 19:38 53.71614 9.90415 3918 ft 240 kts 281°
2026-05-06 19:38 53.71519 9.87460 4333 ft 267 kts 257°
2026-05-06 19:38 53.70953 9.84397 5046 ft 278 kts 250°
2026-05-06 19:38 53.70236 9.81367 5962 ft 281 kts 248°
2026-05-06 19:39 53.69488 9.78292 6879 ft 283 kts 249°
2026-05-06 19:39 53.68763 9.75178 7719 ft 287 kts 250°
2026-05-06 19:39 53.68065 9.71999 8624 ft 290 kts 251°
2026-05-06 19:39 53.67402 9.68820 9451 ft 293 kts 251°
2026-05-06 19:40 53.66745 9.65557 9804 ft 294 kts 253°
2026-05-06 19:40 53.65891 9.62385 9903 ft 307 kts 237°
2026-05-06 19:40 53.64411 9.59593 10133 ft 332 kts 218°
2026-05-06 19:40 53.62366 9.57697 10750 ft 340 kts 198°
2026-05-06 19:41 53.60044 9.56919 11537 ft 342 kts 186°
2026-05-06 19:41 53.57678 9.56443 12373 ft 343 kts 187°
2026-05-06 19:41 53.55292 9.55970 13157 ft 346 kts 187°
2026-05-06 19:41 53.52889 9.55496 13890 ft 349 kts 187°
2026-05-06 19:42 53.50467 9.55023 14554 ft 352 kts 188°
2026-05-06 19:42 53.48033 9.54544 15229 ft 354 kts 188°
2026-05-06 19:42 53.45610 9.54065 15882 ft 357 kts 188°
2026-05-06 19:42 53.43133 9.53576 16522 ft 360 kts 188°
2026-05-06 19:43 53.40641 9.53087 17173 ft 362 kts 188°
2026-05-06 19:43 53.38125 9.52594 17833 ft 365 kts 188°
2026-05-06 19:43 53.35595 9.52101 18431 ft 368 kts 188°
2026-05-06 19:43 53.33045 9.51607 19010 ft 370 kts 188°
2026-05-06 19:44 53.30489 9.51109 19549 ft 373 kts 188°
2026-05-06 19:44 53.27891 9.50598 19969 ft 376 kts 188°
2026-05-06 19:44 53.25292 9.50086 20489 ft 379 kts 188°
2026-05-06 19:44 53.22656 9.49567 21015 ft 382 kts 188°
2026-05-06 19:45 53.20044 9.49052 21501 ft 385 kts 188°
2026-05-06 19:45 53.17371 9.48530 21992 ft 389 kts 188°
2026-05-06 19:45 53.14677 9.48008 22479 ft 392 kts 188°
2026-05-06 19:45 53.11959 9.47483 22965 ft 395 kts 188°
2026-05-06 19:46 53.09208 9.46949 23435 ft 398 kts 188°
2026-05-06 19:46 53.06434 9.46409 23832 ft 401 kts 188°
2026-05-06 19:46 53.03677 9.45876 24245 ft 403 kts 188°
2026-05-06 19:46 53.00882 9.45339 24644 ft 405 kts 188°
2026-05-06 19:47 52.98076 9.44794 25043 ft 407 kts 188°
2026-05-06 19:47 52.95250 9.44211 25442 ft 409 kts 188°
2026-05-06 19:47 52.92457 9.43610 25830 ft 411 kts 189°
2026-05-06 19:47 52.89614 9.42985 26223 ft 413 kts 189°
2026-05-06 19:48 52.86754 9.42355 26592 ft 415 kts 189°
2026-05-06 19:48 52.83879 9.41732 26975 ft 417 kts 188°
2026-05-06 19:48 52.80997 9.41116 27358 ft 419 kts 188°
2026-05-06 19:48 52.78093 9.40501 27731 ft 421 kts 188°
2026-05-06 19:49 52.75183 9.39887 28102 ft 423 kts 188°
2026-05-06 19:49 52.72252 9.39270 28456 ft 425 kts 188°
2026-05-06 19:49 52.69350 9.38657 28791 ft 428 kts 188°
2026-05-06 19:49 52.66397 9.38034 29143 ft 429 kts 188°
2026-05-06 19:50 52.63408 9.37678 29477 ft 432 kts 181°
2026-05-06 19:50 52.60411 9.38078 29828 ft 436 kts 172°
2026-05-06 19:50 52.57430 9.39133 30107 ft 438 kts 168°
2026-05-06 19:50 52.54451 9.40261 30370 ft 440 kts 168°
2026-05-06 19:51 52.51470 9.41388 30637 ft 441 kts 168°
2026-05-06 19:51 52.48474 9.42513 30913 ft 443 kts 169°
2026-05-06 19:51 52.45461 9.43637 31179 ft 444 kts 169°
2026-05-06 19:51 52.42491 9.44737 31527 ft 443 kts 169°
2026-05-06 19:52 52.39487 9.45848 31917 ft 442 kts 169°
2026-05-06 19:52 52.36501 9.46956 32302 ft 440 kts 169°
2026-05-06 19:52 52.33526 9.48066 32708 ft 438 kts 169°
2026-05-06 19:52 52.30554 9.49176 33099 ft 436 kts 169°
2026-05-06 19:53 52.27631 9.50264 33480 ft 435 kts 170°
2026-05-06 19:53 52.24663 9.51362 33865 ft 433 kts 170°
2026-05-06 19:53 52.21722 9.52445 34184 ft 432 kts 170°
2026-05-06 19:53 52.18790 9.53523 34458 ft 432 kts 170°
2026-05-06 19:54 52.15855 9.54602 34712 ft 432 kts 170°
2026-05-06 19:54 52.12918 9.55680 34829 ft 432 kts 170°
2026-05-06 19:54 52.07165 9.57789 34853 ft 424 kts 170°
2026-05-06 19:55 52.01411 9.59893 34856 ft 423 kts 170°
2026-05-06 19:55 51.95666 9.61994 34850 ft 423 kts 170°
2026-05-06 19:56 51.89924 9.64084 34851 ft 423 kts 170°
2026-05-06 19:56 51.84220 9.66148 34847 ft 422 kts 170°
2026-05-06 19:57 51.78489 9.68228 34845 ft 422 kts 170°
2026-05-06 19:57 51.72752 9.70304 34847 ft 422 kts 170°
2026-05-06 19:58 51.67027 9.72371 34816 ft 422 kts 170°
2026-05-06 19:58 51.61292 9.74447 34817 ft 422 kts 170°
2026-05-06 19:59 51.55603 9.76483 34826 ft 422 kts 171°
2026-05-06 19:59 51.49878 9.78512 34826 ft 421 kts 171°
2026-05-06 20:00 51.44157 9.80547 34830 ft 421 kts 171°
2026-05-06 20:00 51.38440 9.82581 34820 ft 421 kts 171°
2026-05-06 20:01 51.32764 9.84597 34846 ft 419 kts 171°
2026-05-06 20:01 51.27074 9.86616 34846 ft 419 kts 171°
2026-05-06 20:02 51.21353 9.88052 34841 ft 413 kts 182°
2026-05-06 20:02 51.15629 9.87603 34832 ft 412 kts 185°
2026-05-06 20:03 51.09960 9.87102 34839 ft 411 kts 185°
2026-05-06 20:03 51.04256 9.86605 34841 ft 410 kts 185°
2026-05-06 20:04 50.98565 9.86118 34834 ft 409 kts 185°
2026-05-06 20:04 50.92878 9.85635 34834 ft 409 kts 185°
2026-05-06 20:05 50.87238 9.85141 34828 ft 408 kts 185°
2026-05-06 20:05 50.81574 9.84645 34830 ft 408 kts 185°
2026-05-06 20:06 50.75913 9.84156 34828 ft 407 kts 185°
2026-05-06 20:06 50.70256 9.83678 34828 ft 407 kts 185°
2026-05-06 20:07 50.64645 9.83190 34811 ft 407 kts 185°
2026-05-06 20:07 50.59002 9.82710 34829 ft 405 kts 185°
2026-05-06 20:08 50.53391 9.82231 34835 ft 404 kts 185°
2026-05-06 20:08 50.47782 9.81752 34834 ft 403 kts 185°
2026-05-06 20:09 50.42219 9.81276 34829 ft 402 kts 185°
2026-05-06 20:09 50.36632 9.80797 34827 ft 402 kts 185°
2026-05-06 20:10 50.31044 9.80325 34824 ft 402 kts 185°
2026-05-06 20:10 50.25459 9.79865 34822 ft 402 kts 185°
2026-05-06 20:11 50.19912 9.79397 34819 ft 402 kts 185°
2026-05-06 20:11 50.14335 9.78917 34816 ft 402 kts 185°
2026-05-06 20:12 50.08749 9.78450 34592 ft 402 kts 184°
2026-05-06 20:12 50.05966 9.78356 34258 ft 400 kts 180°
2026-05-06 20:12 50.03193 9.78527 33702 ft 397 kts 179°
2026-05-06 20:13 50.00443 9.78709 33122 ft 394 kts 178°
2026-05-06 20:13 49.97724 9.78896 32596 ft 389 kts 178°
2026-05-06 20:13 49.95022 9.79081 32066 ft 386 kts 178°
2026-05-06 20:13 49.92357 9.79258 31552 ft 383 kts 178°
2026-05-06 20:14 49.89736 9.79426 31048 ft 380 kts 178°
2026-05-06 20:14 49.87109 9.79590 30545 ft 377 kts 178°
2026-05-06 20:14 49.84499 9.79754 30044 ft 374 kts 177°
2026-05-06 20:14 49.81905 9.79917 29503 ft 372 kts 177°
2026-05-06 20:15 49.79336 9.80078 29019 ft 367 kts 177°
2026-05-06 20:15 49.76797 9.80240 28550 ft 362 kts 177°
2026-05-06 20:15 49.74293 9.80402 28085 ft 358 kts 177°
2026-05-06 20:15 49.71825 9.80564 27645 ft 354 kts 177°
2026-05-06 20:16 49.69409 9.80714 27219 ft 350 kts 178°
2026-05-06 20:16 49.67007 9.80623 27003 ft 340 kts 186°
2026-05-06 20:16 49.64698 9.80199 26925 ft 333 kts 186°
2026-05-06 20:16 49.62387 9.79793 26854 ft 335 kts 185°
2026-05-06 20:17 49.60069 9.79389 26778 ft 336 kts 186°
2026-05-06 20:17 49.57751 9.78980 26701 ft 336 kts 186°
2026-05-06 20:17 49.55428 9.78570 26635 ft 335 kts 186°
2026-05-06 20:17 49.53097 9.78160 26005 ft 343 kts 186°
2026-05-06 20:18 49.50676 9.77735 24980 ft 357 kts 186°
2026-05-06 20:18 49.48169 9.77292 24030 ft 368 kts 186°
2026-05-06 20:18 49.45609 9.76835 23361 ft 371 kts 186°
2026-05-06 20:18 49.43049 9.76376 22712 ft 370 kts 186°
2026-05-06 20:19 49.40569 9.75935 22042 ft 358 kts 186°
2026-05-06 20:19 49.38067 9.75495 20695 ft 366 kts 186°
2026-05-06 20:19 49.35535 9.75050 19644 ft 365 kts 186°
2026-05-06 20:19 49.33020 9.74607 18715 ft 362 kts 186°
2026-05-06 20:20 49.30535 9.74168 17806 ft 358 kts 186°
2026-05-06 20:20 49.28077 9.73739 16849 ft 353 kts 186°
2026-05-06 20:20 49.25650 9.73317 15951 ft 349 kts 187°
2026-05-06 20:20 49.23249 9.72895 15080 ft 345 kts 187°
2026-05-06 20:21 49.20878 9.72476 14252 ft 341 kts 187°
2026-05-06 20:21 49.18535 9.72065 13387 ft 337 kts 187°
2026-05-06 20:21 49.16217 9.71657 12468 ft 333 kts 188°
2026-05-06 20:21 49.13962 9.71257 11581 ft 330 kts 188°
2026-05-06 20:22 49.11680 9.70854 11055 ft 331 kts 188°
2026-05-06 20:22 49.09398 9.70453 10881 ft 330 kts 188°
2026-05-06 20:22 49.07137 9.70059 10728 ft 322 kts 188°
2026-05-06 20:22 49.04978 9.69687 10597 ft 300 kts 188°
2026-05-06 20:23 49.02974 9.69343 10281 ft 284 kts 188°
2026-05-06 20:23 49.01030 9.69003 9741 ft 279 kts 188°
2026-05-06 20:23 48.99109 9.68664 9103 ft 276 kts 188°
2026-05-06 20:23 48.97208 9.68329 8439 ft 274 kts 189°
2026-05-06 20:24 48.95323 9.67999 7770 ft 272 kts 189°
2026-05-06 20:24 48.93455 9.67674 7143 ft 269 kts 189°
2026-05-06 20:24 48.91632 9.67354 6506 ft 267 kts 189°
2026-05-06 20:24 48.89799 9.67032 5855 ft 264 kts 189°
2026-05-06 20:25 48.87971 9.66711 5208 ft 266 kts 189°
2026-05-06 20:25 48.86150 9.66397 5007 ft 263 kts 189°
2026-05-06 20:25 48.84330 9.66083 4970 ft 264 kts 190°
2026-05-06 20:25 48.82501 9.65766 4985 ft 264 kts 190°
2026-05-06 20:26 48.80736 9.65465 4977 ft 246 kts 190°
2026-05-06 20:26 48.79149 9.64885 4974 ft 228 kts 213°
2026-05-06 20:26 48.77877 9.63518 4830 ft 220 kts 222°
2026-05-06 20:26 48.76772 9.61998 4704 ft 209 kts 233°
2026-05-06 20:27 48.76096 9.60142 4581 ft 198 kts 254°
2026-05-06 20:27 48.75731 9.58194 4450 ft 191 kts 256°
2026-05-06 20:27 48.75377 9.56276 4269 ft 188 kts 255°
2026-05-06 20:27 48.75025 9.54380 4075 ft 186 kts 255°
2026-05-06 20:28 48.74674 9.52496 3994 ft 185 kts 255°
2026-05-06 20:28 48.74326 9.50627 3992 ft 185 kts 255°
2026-05-06 20:28 48.73977 9.48754 3989 ft 185 kts 255°
2026-05-06 20:28 48.73626 9.46876 3996 ft 185 kts 255°
2026-05-06 20:29 48.73286 9.45053 3947 ft 174 kts 255°
2026-05-06 20:29 48.72964 9.43335 3773 ft 166 kts 255°
2026-05-06 20:29 48.72654 9.41677 3572 ft 160 kts 255°
2026-05-06 20:29 48.72352 9.40064 3362 ft 158 kts 255°
2026-05-06 20:30 48.72059 9.38504 3156 ft 155 kts 255°
2026-05-06 20:30 48.71495 9.35500 2782 ft 140 kts 254°
2026-05-06 20:30 48.71233 9.34106 2592 ft 136 kts 253°
2026-05-06 20:31 48.70976 9.32739 2406 ft 133 kts 253°
2026-05-06 20:31 48.70721 9.31384 2210 ft 135 kts 253°
2026-05-06 20:31 48.70464 9.30018 2003 ft 135 kts 253°
2026-05-06 20:31 48.70204 9.28643 1811 ft 136 kts 254°
2026-05-06 20:32 48.69944 9.27262 1622 ft 137 kts 253°
2026-05-06 20:32 48.69678 9.25889 1424 ft 135 kts 253°
2026-05-06 20:32 48.69429 9.24539 1260 ft 134 kts 253°
2026-05-06 20:32 48.69187 9.23259 1212 ft 110 kts 255°
2026-05-06 20:33 48.69023 9.22388 1230 ft 61 kts 253°
2026-05-06 20:33 48.68943 9.21959 1247 ft 34 kts 255°
2026-05-06 20:33 48.68877 9.21615 1253 ft 34 kts 253°
2026-05-06 20:33 48.68823 9.21286 1258 ft 30 kts 261°
2026-05-06 20:34 48.68834 9.20987 1268 ft 26 kts 284°
2026-05-06 20:34 48.68871 9.20773 1273 ft 17 kts 283°
2026-05-06 20:34 48.68863 9.20615 1277 ft 13 kts 254°
2026-05-06 20:34 48.68838 9.20482 1280 ft 13 kts 254°
2026-05-06 20:35 48.68814 9.20356 1285 ft 12 kts 254°
2026-05-06 20:35 48.68791 9.20233 1287 ft 12 kts 254°
2026-05-06 20:35 48.68769 9.20119 1288 ft 11 kts 253°
2026-05-06 20:35 48.68761 9.20010 1292 ft 10 kts 289°
2026-05-06 20:36 48.68807 9.19930 1296 ft 10 kts 315°
2026-05-06 20:36 48.68863 9.19885 1301 ft 9 kts 342°
2026-05-06 20:36 48.68885 9.19793 1305 ft 14 kts 255°
2026-05-06 20:36 48.68859 9.19656 1309 ft 13 kts 254°
2026-05-06 20:37 48.68834 9.19521 1311 ft 13 kts 254°
2026-05-06 20:37 48.68812 9.19410 1313 ft 7 kts 254°
2026-05-06 20:37 48.68827 9.19383 1314 ft 3 kts 339°
2026-05-06 20:37 48.68864 9.19368 1315 ft 5 kts 344°
2026-05-06 20:38 48.68884 9.19359 1315 ft 1 kts 344°